Location: Nairn
(57.5833°N, 3.8667°W)
Time: 21:53:10
(UTC+00:00)

Tiros 1 - Pass Details

Date: 30 September 2022
Orbit: 629 x 662 km, 48.4° (Epoch: 08 December)

Event Time Altitude Azimuth Distance (km) Brightness Sun altitude
Exits shadow 05:21:09 10° 248° (WSW) 2,082 9.1 -8.3°
Reaches altitude 10° 05:21:14 10° 247° (WSW) 2,059 9.1 -8.3°
Maximum altitude 05:24:36 19° 202° (SSW) 1,519 8.8 -7.8°
Drops below altitude 10° 05:27:56 10° 157° (SSE) 2,039 9.9 -7.4°
Sets 05:30:47 0° 140° (SE) 2,940 11.1 -7.0°
